Back to catalog

NSTAR C

AliveCommunicationsGEO
NORAD 27461·PAYLOAD·🇯🇵 Japan

Launched Jul 5, 2002 from Guiana Space Centre

Loading…

TLE

FreshSource: Space-Track

Epoch: Sep 14, 2026, 08:21 UTC

1 27461U 02035B   26257.34856501 -.00000158  00000-0  00000-0 0  9999
2 27461  11.2294  43.3429 0010221 186.6193 184.6987  0.98952154 88323

Track NSTAR C in real time with AllMySat

Download on the App Store